Hourly Weather Roundup
Issued by NWS Central Illinois

Current Version | Previous Version | Text Only | Print | Product List | Glossary On
Versions: 1 2 3 4 5 6 7 8 9 10 11 12 13 14 15 16 17 18 19 20 21 22 23 24 25 26 27 28 29 30 31 32 33 34 35 36 37 38 39 40 41 42 43 44 45 46 47 48 49 50
000
NZUS43 KILX 260610
HWRILX

AREA WEATHER ROUNDUP
NATIONAL WEATHER SERVICE, LINCOLN IL
100 AM CDT TUE JUL 26 2016


CITY           SKY/WX    TMP DP  RH WIND       PRES   REMARKS
BLOOMINGTON    MOCLDY    72  68  87 CALM      30.05S
6HR MIN TEMP:  70; 6HR MAX TEMP:  80;

CHAMPAIGN      CLOUDY    74  70  87 NE3       30.03F
6HR MIN TEMP:  73; 6HR MAX TEMP:  82;

DANVILLE       CLOUDY    73  71  93 CALM      30.01R
6HR MIN TEMP:  73; 6HR MAX TEMP:  80;

DECATUR        PTCLDY    73  70  90 NE5       30.03S
6HR MIN TEMP:  73; 6HR MAX TEMP:  84;

EFFINGHAM      CLOUDY    76  76 100 CALM      30.02F
FLORA          MOCLDY    76  75  97 CALM      30.00F FOG
6HR MIN TEMP:  76; 6HR MAX TEMP:  82;

GALESBURG      PTCLDY    67  66  96 CALM      30.05F
JACKSONVILLE   CLOUDY    71  70  95 CALM      30.03F
6HR MIN TEMP:  70; 6HR MAX TEMP:  81;

LACON          PTCLDY    69  67  94 CALM      30.03S
6HR MIN TEMP:  69; 6HR MAX TEMP:  81;

LAWRENCEVILLE  MOCLDY    77  76  96 CALM      30.01S
6HR MIN TEMP:  76; 6HR MAX TEMP:  79; 6HR PCP: TRACE;

LITCHFIELD     NOT AVBL
$$


CITY           SKY/WX    TMP DP  RH WIND       PRES   REMARKS
LINCOLN        PTCLDY    71  71  98 CALM      30.03F
6HR MIN TEMP:  71; 6HR MAX TEMP:  82;

MACOMB         PTCLDY    67  66  97 NW5       30.06F
MATTOON        MOCLDY    74  72  93 CALM      30.02R
6HR MIN TEMP:  74; 6HR MAX TEMP:  83;

MT CARMEL AP   FOG       75  74  96 CALM      30.01S VSB 1/2
6HR MIN TEMP:  74; 6HR MAX TEMP:  77;

OLNEY-NOBLE AP MOCLDY    75  75 100 CALM      30.00F FOG
PARIS          MOCLDY    74  74  98 CALM      30.03S
6HR MIN TEMP:  73; 6HR MAX TEMP:  82;

PEORIA         PTCLDY    72  69  90 CALM      30.04S
6HR MIN TEMP:  71; 6HR MAX TEMP:  82;

PONTIAC        NOT AVBL
RANTOUL        NOT AVBL
ROBINSON       FOG       74  74 100 CALM      30.02S VSB 1
6HR MIN TEMP:  74; 6HR MAX TEMP:  81;

SPRINGFIELD    CLOUDY    73  70  90 CALM      30.03F
6HR MIN TEMP:  73; 6HR MAX TEMP:  84;

TAYLORVILLE    CLOUDY    72  71  99 MISG      30.02F
$$

...REGIONAL REPORTS...


CITY           SKY/WX    TMP DP  RH WIND       PRES   REMARKS
CHICAGO O`HARE CLOUDY    74  64  71 E3        30.03R
KANKAKEE       PTCLDY    69  68  95 CALM      30.04S
MOLINE         CLOUDY    69  65  86 CALM      30.04S
MOUNT STERLING MOCLDY    70  67  93 CALM      30.04S
MOUNT VERNON   MOCLDY    73  70  88 CALM      29.99F VSB 1/2
PITTSFIELD     MOCLDY    71  70  95 CALM      30.05F
QUINCY         PTCLDY    72  68  87 CALM      30.04F
ROCKFORD       PTCLDY    75  65  70 CALM      30.05S
$$


CITY           SKY/WX    TMP DP  RH WIND       PRES   REMARKS
BURLINGTON     CLEAR     68  68 100 N3        30.05S
CEDAR RAPIDS   CLEAR     66  66 100 NW5       30.06S
DES MOINES     CLEAR     74  65  73 CALM      30.07F
KIRKSVILLE     FOG       65  64  97 CALM      30.07F VSB 1/2
OTTUMWA        CLEAR     65  64  97 NW5       30.07S FOG
ST LOUIS       CLOUDY    79  74  84 N6        30.02S HX  82
$$


CITY           SKY/WX    TMP DP  RH WIND       PRES   REMARKS
TERRE HAUTE    PTCLDY    75  72  90 CALM      30.02R
EVANSVILLE     CLOUDY    74  72  93 CALM      30.00F
INDIANAPOLIS   CLOUDY    77  68  73 N7        30.03R
LAFAYETTE      CLOUDY    68  67  96 CALM      30.02S
MADISON        CLEAR     67  65  93 CALM      30.05R
MILWAUKEE      CLEAR     75  64  68 W3        30.03S
$$





USA.gov is the U.S. government's official web portal to all federal, state and local government web resources and services.